Time,TemperatureF,DewpointF,PressureIn,WindDirection,WindDirectionDegrees,WindSpeedMPH,WindSpeedGustMPH,Humidity,HourlyPrecipIn,Conditions,Clouds,dailyrainin,SoftwareType,DateUTC
2013-05-26 00:03:00,43.0,-99.9,31.04,ENE,65,3.0,5.0,-999,-99.99,,,-99.99,,2013-05-26 04:03:00,
2013-05-26 00:13:00,43.0,-99.9,30.34,ENE,65,3.0,5.0,-999,-99.99,,,-99.99,,2013-05-26 04:13:00,
2013-05-26 00:23:00,43.0,-99.9,30.34,ENE,65,3.0,5.0,-999,-99.99,,,-99.99,,2013-05-26 04:23:00,
2013-05-26 00:33:00,43.0,-99.9,30.34,ENE,65,3.0,5.0,-999,-99.99,,,-99.99,,2013-05-26 04:33:00,
2013-05-26 00:40:00,42.0,-99.9,30.35,NE,47,3.0,5.0,-999,-99.99,,,-99.99,,2013-05-26 04:40:00,
2013-05-26 01:03:00,42.0,-99.9,31.05,NE,47,3.0,5.0,-999,-99.99,,,-99.99,,2013-05-26 05:03:00,
2013-05-26 01:12:00,42.0,-99.9,30.35,NE,47,3.0,5.0,-999,-99.99,,,-99.99,,2013-05-26 05:12:00,
2013-05-26 01:22:00,42.0,-99.9,30.35,NE,47,3.0,5.0,-999,-99.99,,,-99.99,,2013-05-26 05:22:00,
2013-05-26 01:32:00,42.0,-99.9,30.35,NE,47,3.0,5.0,-999,-99.99,,,-99.99,,2013-05-26 05:32:00,
2013-05-26 02:01:00,41.0,-99.9,31.05,North,11,1.0,3.0,-999,-99.99,,,-99.99,,2013-05-26 06:01:00,
2013-05-26 02:12:00,41.0,-99.9,30.35,North,11,1.0,3.0,-999,-99.99,,,-99.99,,2013-05-26 06:12:00,
2013-05-26 02:22:00,41.0,-99.9,31.05,NW,320,1.0,8.0,-999,-99.99,,,-99.99,,2013-05-26 06:22:00,
2013-05-26 02:32:00,41.0,-99.9,30.35,NW,320,1.0,8.0,-999,-99.99,,,-99.99,,2013-05-26 06:32:00,
2013-05-26 02:40:00,40.0,-99.9,30.35,NE,34,1.0,3.0,-999,-99.99,,,-99.99,,2013-05-26 06:40:00,
2013-05-26 02:42:00,41.0,-99.9,30.35,NW,320,1.0,8.0,-999,-99.99,,,-99.99,,2013-05-26 06:42:00,
2013-05-26 02:52:00,41.0,-99.9,31.05,NW,320,1.0,8.0,-999,-99.99,,,-99.99,,2013-05-26 06:52:00,
2013-05-26 03:02:00,40.0,-99.9,31.05,NE,34,1.0,3.0,-999,-99.99,,,-99.99,,2013-05-26 07:02:00,
2013-05-26 03:11:00,40.0,-99.9,30.35,NE,34,1.0,3.0,-999,-99.99,,,-99.99,,2013-05-26 07:11:00,
2013-05-26 03:22:00,40.0,-99.9,30.35,NE,34,1.0,3.0,-999,-99.99,,,-99.99,,2013-05-26 07:22:00,
2013-05-26 03:32:00,40.0,-99.9,30.35,NE,34,1.0,3.0,-999,-99.99,,,-99.99,,2013-05-26 07:32:00,
2013-05-26 03:40:00,40.0,-99.9,30.34,NE,56,1.0,2.0,-999,-99.99,,,-99.99,,2013-05-26 07:40:00,
2013-05-26 04:02:00,40.0,-99.9,31.04,NE,56,1.0,2.0,-999,-99.99,,,-99.99,,2013-05-26 08:02:00,
2013-05-26 04:12:00,40.0,-99.9,30.34,NE,56,1.0,2.0,-999,-99.99,,,-99.99,,2013-05-26 08:12:00,
2013-05-26 04:22:00,40.0,-99.9,30.34,NE,56,1.0,2.0,-999,-99.99,,,-99.99,,2013-05-26 08:22:00,
2013-05-26 04:32:00,40.0,-99.9,30.34,NE,56,1.0,2.0,-999,-99.99,,,-99.99,,2013-05-26 08:32:00,
2013-05-26 04:40:00,40.0,-99.9,30.35,NE,56,2.0,3.0,-999,-99.99,,,-99.99,,2013-05-26 08:40:00,
2013-05-26 05:01:00,40.0,-99.9,31.05,NE,56,2.0,3.0,-999,-99.99,,,-99.99,,2013-05-26 09:01:00,
2013-05-26 05:11:00,40.0,-99.9,30.35,NE,56,2.0,3.0,-999,-99.99,,,-99.99,,2013-05-26 09:11:00,
2013-05-26 05:22:00,40.0,-99.9,30.35,NE,56,2.0,3.0,-999,-99.99,,,-99.99,,2013-05-26 09:22:00,
2013-05-26 05:34:00,40.0,-99.9,30.35,NE,56,2.0,3.0,-999,-99.99,,,-99.99,,2013-05-26 09:34:00,
2013-05-26 05:40:00,38.0,-99.9,30.35,North,-999,0.0,1.0,-999,-99.99,,,-99.99,,2013-05-26 09:40:00,
2013-05-26 06:03:00,38.0,-99.9,31.05,North,-999,0.0,1.0,-999,-99.99,,,-99.99,,2013-05-26 10:03:00,
2013-05-26 06:12:00,38.0,-99.9,30.35,North,-999,0.0,1.0,-999,-99.99,,,-99.99,,2013-05-26 10:12:00,
2013-05-26 06:23:00,38.0,-99.9,30.35,North,-999,0.0,1.0,-999,-99.99,,,-99.99,,2013-05-26 10:23:00,
2013-05-26 06:33:00,38.0,-99.9,30.35,North,-999,0.0,1.0,-999,-99.99,,,-99.99,,2013-05-26 10:33:00,
2013-05-26 06:40:00,40.0,-99.9,30.36,NNE,17,1.0,1.0,-999,-99.99,,,-99.99,,2013-05-26 10:40:00,
2013-05-26 07:03:00,40.0,-99.9,31.06,NNE,17,1.0,1.0,-999,-99.99,,,-99.99,,2013-05-26 11:03:00,
2013-05-26 07:12:00,40.0,-99.9,30.36,NNE,17,1.0,1.0,-999,-99.99,,,-99.99,,2013-05-26 11:12:00,
2013-05-26 07:22:00,40.0,-99.9,30.36,NNE,17,1.0,1.0,-999,-99.99,,,-99.99,,2013-05-26 11:22:00,
2013-05-26 07:33:00,40.0,-99.9,30.36,NNE,17,1.0,1.0,-999,-99.99,,,-99.99,,2013-05-26 11:33:00,
2013-05-26 07:40:00,46.0,-99.9,30.37,East,81,2.0,3.0,-999,-99.99,,,-99.99,,2013-05-26 11:40:00,
2013-05-26 08:02:00,46.0,-99.9,31.07,East,81,2.0,3.0,-999,-99.99,,,-99.99,,2013-05-26 12:02:00,
2013-05-26 08:12:00,46.0,-99.9,30.37,East,81,2.0,3.0,-999,-99.99,,,-99.99,,2013-05-26 12:12:00,
2013-05-26 08:22:00,46.0,-99.9,30.37,East,81,2.0,3.0,-999,-99.99,,,-99.99,,2013-05-26 12:22:00,
2013-05-26 08:32:00,46.0,-99.9,30.37,East,81,2.0,3.0,-999,-99.99,,,-99.99,,2013-05-26 12:32:00,
2013-05-26 08:40:00,47.0,-99.9,30.39,ENE,68,5.0,5.0,-999,-99.99,,,-99.99,,2013-05-26 12:40:00,
2013-05-26 09:02:00,47.0,-99.9,31.09,ENE,68,5.0,5.0,-999,-99.99,,,-99.99,,2013-05-26 13:02:00,
2013-05-26 09:11:00,47.0,-99.9,30.39,ENE,68,5.0,5.0,-999,-99.99,,,-99.99,,2013-05-26 13:11:00,
2013-05-26 09:22:00,47.0,-99.9,30.39,ENE,68,5.0,5.0,-999,-99.99,,,-99.99,,2013-05-26 13:22:00,
2013-05-26 09:32:00,47.0,-99.9,30.39,ENE,68,5.0,5.0,-999,-99.99,,,-99.99,,2013-05-26 13:32:00,
2013-05-26 09:40:00,48.0,-99.9,30.38,ENE,75,7.0,8.0,-999,-99.99,,,-99.99,,2013-05-26 13:40:00,
2013-05-26 10:02:00,48.0,-99.9,31.08,ENE,75,7.0,8.0,-999,-99.99,,,-99.99,,2013-05-26 14:02:00,
2013-05-26 10:11:00,48.0,-99.9,30.38,ENE,75,7.0,8.0,-999,-99.99,,,-99.99,,2013-05-26 14:11:00,
2013-05-26 10:22:00,48.0,-99.9,30.38,ENE,75,7.0,8.0,-999,-99.99,,,-99.99,,2013-05-26 14:22:00,
2013-05-26 10:32:00,48.0,-99.9,30.38,ENE,75,7.0,8.0,-999,-99.99,,,-99.99,,2013-05-26 14:32:00,
2013-05-26 11:02:00,49.0,-99.9,31.07,East,90,4.0,7.0,-999,-99.99,,,-99.99,,2013-05-26 15:02:00,
2013-05-26 11:12:00,49.0,-99.9,30.37,East,90,4.0,7.0,-999,-99.99,,,-99.99,,2013-05-26 15:12:00,
2013-05-26 11:22:00,49.0,-99.9,30.37,East,90,4.0,7.0,-999,-99.99,,,-99.99,,2013-05-26 15:22:00,
2013-05-26 11:33:00,48.0,-99.9,30.37,ENE,63,7.0,8.0,-999,-99.99,,,-99.99,,2013-05-26 15:33:00,
2013-05-26 11:40:00,50.0,-99.9,30.37,ENE,58,6.0,8.0,-999,-99.99,,,-99.99,,2013-05-26 15:40:00,
2013-05-26 11:43:00,48.0,-99.9,30.37,ENE,63,7.0,8.0,-999,-99.99,,,-99.99,,2013-05-26 15:43:00,
2013-05-26 11:53:00,48.0,-99.9,30.37,ENE,63,7.0,8.0,-999,-99.99,,,-99.99,,2013-05-26 15:53:00,
2013-05-26 12:03:00,50.0,-99.9,31.07,ENE,58,6.0,8.0,-999,-99.99,,,-99.99,,2013-05-26 16:03:00,
2013-05-26 12:12:00,50.0,-99.9,30.37,ENE,58,6.0,8.0,-999,-99.99,,,-99.99,,2013-05-26 16:12:00,
2013-05-26 12:23:00,50.0,-99.9,30.37,ENE,58,6.0,8.0,-999,-99.99,,,-99.99,,2013-05-26 16:23:00,
2013-05-26 12:33:00,50.0,-99.9,30.37,ENE,58,6.0,8.0,-999,-99.99,,,-99.99,,2013-05-26 16:33:00,
2013-05-26 12:40:00,50.0,-99.9,30.36,NE,49,4.0,5.0,-999,-99.99,,,-99.99,,2013-05-26 16:40:00,
2013-05-26 13:02:00,50.0,-99.9,31.06,NE,49,4.0,5.0,-999,-99.99,,,-99.99,,2013-05-26 17:02:00,
2013-05-26 13:12:00,50.0,-99.9,30.36,NE,49,4.0,5.0,-999,-99.99,,,-99.99,,2013-05-26 17:12:00,
2013-05-26 13:23:00,50.0,-99.9,30.36,NE,49,4.0,5.0,-999,-99.99,,,-99.99,,2013-05-26 17:23:00,
2013-05-26 13:32:00,50.0,-99.9,30.36,NE,49,4.0,5.0,-999,-99.99,,,-99.99,,2013-05-26 17:32:00,
2013-05-26 13:40:00,51.0,-99.9,30.36,North,11,2.0,4.0,-999,-99.99,,,-99.99,,2013-05-26 17:40:00,
2013-05-26 14:01:00,51.0,-99.9,31.06,North,11,2.0,4.0,-999,-99.99,,,-99.99,,2013-05-26 18:01:00,
2013-05-26 14:12:00,51.0,-99.9,30.36,North,11,2.0,4.0,-999,-99.99,,,-99.99,,2013-05-26 18:12:00,
2013-05-26 14:22:00,51.0,-99.9,30.36,North,11,2.0,4.0,-999,-99.99,,,-99.99,,2013-05-26 18:22:00,
2013-05-26 14:32:00,51.0,-99.9,30.36,North,11,2.0,4.0,-999,-99.99,,,-99.99,,2013-05-26 18:32:00,
2013-05-26 14:40:00,51.0,-99.9,30.35,North,1,2.0,4.0,-999,-99.99,,,-99.99,,2013-05-26 18:40:00,
2013-05-26 15:01:00,51.0,-99.9,31.05,North,1,2.0,4.0,-999,-99.99,,,-99.99,,2013-05-26 19:01:00,
2013-05-26 15:11:00,51.0,-99.9,30.35,North,1,2.0,4.0,-999,-99.99,,,-99.99,,2013-05-26 19:11:00,
2013-05-26 15:22:00,51.0,-99.9,30.35,North,1,2.0,4.0,-999,-99.99,,,-99.99,,2013-05-26 19:22:00,
2013-05-26 15:32:00,51.0,-99.9,30.35,North,1,2.0,4.0,-999,-99.99,,,-99.99,,2013-05-26 19:32:00,
2013-05-26 15:40:00,53.0,-99.9,30.33,NNW,328,3.0,5.0,-999,-99.99,,,-99.99,,2013-05-26 19:40:00,
2013-05-26 16:02:00,53.0,-99.9,31.03,NNW,328,3.0,5.0,-999,-99.99,,,-99.99,,2013-05-26 20:02:00,
2013-05-26 16:11:00,53.0,-99.9,30.33,NNW,328,3.0,5.0,-999,-99.99,,,-99.99,,2013-05-26 20:11:00,
2013-05-26 16:22:00,53.0,-99.9,30.33,NNW,328,3.0,5.0,-999,-99.99,,,-99.99,,2013-05-26 20:22:00,
2013-05-26 16:32:00,53.0,-99.9,30.33,NNW,328,3.0,5.0,-999,-99.99,,,-99.99,,2013-05-26 20:32:00,
2013-05-26 17:40:00,54.0,-99.9,30.28,West,271,3.0,7.0,-999,-99.99,,,-99.99,,2013-05-26 21:40:00,
2013-05-26 18:03:00,54.0,-99.9,30.98,West,271,3.0,7.0,-999,-99.99,,,-99.99,,2013-05-26 22:03:00,
2013-05-26 18:12:00,54.0,-99.9,30.28,West,271,3.0,7.0,-999,-99.99,,,-99.99,,2013-05-26 22:12:00,
2013-05-26 18:23:00,54.0,-99.9,30.28,West,271,3.0,7.0,-999,-99.99,,,-99.99,,2013-05-26 22:23:00,
2013-05-26 18:33:00,54.0,-99.9,30.28,West,271,3.0,7.0,-999,-99.99,,,-99.99,,2013-05-26 22:33:00,
2013-05-26 18:40:00,53.0,-99.9,30.27,NNE,24,1.0,5.0,-999,-99.99,,,-99.99,,2013-05-26 22:40:00,
2013-05-26 19:02:00,53.0,-99.9,30.97,NNE,24,1.0,5.0,-999,-99.99,,,-99.99,,2013-05-26 23:02:00,
2013-05-26 19:12:00,53.0,-99.9,30.27,NNE,24,1.0,5.0,-999,-99.99,,,-99.99,,2013-05-26 23:12:00,
2013-05-26 19:22:00,53.0,-99.9,30.27,NNE,24,1.0,5.0,-999,-99.99,,,-99.99,,2013-05-26 23:22:00,
2013-05-26 19:32:00,53.0,-99.9,30.27,NNE,24,1.0,5.0,-999,-99.99,,,-99.99,,2013-05-26 23:32:00,
2013-05-26 19:40:00,56.0,-99.9,30.25,NNE,25,2.0,3.0,-999,-99.99,,,-99.99,,2013-05-26 23:40:00,
2013-05-26 20:02:00,56.0,-99.9,30.95,NNE,25,2.0,3.0,-999,-99.99,,,-99.99,,2013-05-27 00:02:00,
2013-05-26 20:11:00,56.0,-99.9,30.25,NNE,25,2.0,3.0,-999,-99.99,,,-99.99,,2013-05-27 00:11:00,
2013-05-26 20:22:00,56.0,-99.9,30.25,NNE,25,2.0,3.0,-999,-99.99,,,-99.99,,2013-05-27 00:22:00,
2013-05-26 20:32:00,56.0,-99.9,30.25,NNE,25,2.0,3.0,-999,-99.99,,,-99.99,,2013-05-27 00:32:00,
2013-05-26 20:40:00,50.0,-99.9,30.25,West,272,2.0,4.0,-999,-99.99,,,-99.99,,2013-05-27 00:40:00,
2013-05-26 21:01:00,50.0,-99.9,30.95,West,272,2.0,4.0,-999,-99.99,,,-99.99,,2013-05-27 01:01:00,
2013-05-26 21:11:00,50.0,-99.9,30.25,West,272,2.0,4.0,-999,-99.99,,,-99.99,,2013-05-27 01:11:00,
2013-05-26 21:22:00,50.0,-99.9,30.25,West,272,2.0,4.0,-999,-99.99,,,-99.99,,2013-05-27 01:22:00,
2013-05-26 21:32:00,50.0,-99.9,30.25,West,272,2.0,4.0,-999,-99.99,,,-99.99,,2013-05-27 01:32:00,
2013-05-26 21:40:00,46.0,-99.9,30.25,WSW,245,4.0,5.0,-999,-99.99,,,-99.99,,2013-05-27 01:40:00,
2013-05-26 22:02:00,46.0,-99.9,30.95,WSW,245,4.0,5.0,-999,-99.99,,,-99.99,,2013-05-27 02:02:00,
2013-05-26 22:11:00,46.0,-99.9,30.25,WSW,245,4.0,5.0,-999,-99.99,,,-99.99,,2013-05-27 02:11:00,
2013-05-26 22:22:00,46.0,-99.9,30.25,WSW,245,4.0,5.0,-999,-99.99,,,-99.99,,2013-05-27 02:22:00,
2013-05-26 22:32:00,46.0,-99.9,30.25,WSW,245,4.0,5.0,-999,-99.99,,,-99.99,,2013-05-27 02:32:00,
2013-05-26 22:40:00,44.0,-99.9,30.26,West,273,1.0,2.0,-999,-99.99,,,-99.99,,2013-05-27 02:40:00,
2013-05-26 23:02:00,44.0,-99.9,30.96,West,273,1.0,2.0,-999,-99.99,,,-99.99,,2013-05-27 03:02:00,
2013-05-26 23:11:00,44.0,-99.9,30.26,West,273,1.0,2.0,-999,-99.99,,,-99.99,,2013-05-27 03:11:00,
2013-05-26 23:22:00,44.0,-99.9,30.26,West,273,1.0,2.0,-999,-99.99,,,-99.99,,2013-05-27 03:22:00,
2013-05-26 23:33:00,44.0,-99.9,30.26,West,273,1.0,2.0,-999,-99.99,,,-99.99,,2013-05-27 03:33:00,
2013-05-26 23:40:00,43.0,-99.9,30.27,West,277,1.0,1.0,-999,-99.99,,,-99.99,,2013-05-27 03:40:00,